SBPLSBRF

Guest
Details From SBPL - Senador Nilo Coelho
To SBRF - Recife Intl
Flight Number -
Tags Decoded
Created
Modified
Stats Distance 344 nm / 637 km
Max Altitude 0 ft / 0 m
Waypoints 2
Social Downloads 8
Likes 0
Share VATSIM

Download

Looking for another format? Having issues loading an existing format? Contact us
Advertisement - Login to hide

Notes

Decoded

Route

SBPL SBRF

ID Type Via Altitude Latitude Longitude Leg Dist Tot Dist Heading (true) Name
O SBPL APT - 0 ft / 0 m -9.35763˚ -40.58306˚ - 0 nm - -
O SBRF APT - 0 ft / 0 m -8.12516˚ -34.92862˚ 343 nm 343 nm 78° / 77° -

Altitude Profile

Advertisement - Login to hide

Weather


0- 5 10 15 20 25 30 35+ Temperature / ° C

Clouds and Precipitation
Forecast for 2017-12-15 12:00 UTC. Updated an hour ago

Ground ~20,000 ft ~40,000 ft Winds

SBPL

Details ICAO SBPL (PNZ)
Name SENADOR NILO COELHO
Region Brazil
Timezone America/Recife (UTC-3.0)
Stats Elevation 1,263 ft / 385 m (AMSL)
Location -9.362412° -40.569099°
Runways 1
Magnetic Variation 22.596° W

METAR

SBPL 150800Z 14010KT CAVOK 23/18 Q1015

Decode

TAF

TAF SBPL 150200Z 1506/1606 14007KT 8000 SCT030 TN25/1508Z TX34/1517Z PROB30 1520/1522 6000 TSRA SCT025 FEW030CB RMK PEI

Decode

Departure Runways

ID Width Length Bearing (true) Bearing (mag) Surface Threshold Offset Overrun Length
13 140 ft / 43 m 10,642 ft / 3,244 m 109.17° 131.77° Asphalt 1,605 ft / 489 m 0 ft / 0 m
31 140 ft / 43 m 10,642 ft / 3,244 m 289.16° 311.76° Asphalt 0 ft / 0 m 0 ft / 0 m

SBRF

Details ICAO SBRF (REC)
Name Recife Intl
Region Brazil
Timezone America/Recife (UTC-3.0)
Stats Elevation 33 ft / 10 m (AMSL)
Location -8.127896° -34.922981°
Runways 2
Magnetic Variation 22.088° W

METAR

SBRF 150800Z 09004KT 9999 SCT023 26/21 Q1013

Decode

TAF

TAF SBRF 150200Z 1506/1606 11008KT 9999 SCT020 TN25/1508Z TX30/1515Z RMK PEI

Decode

Destination Runways

ID Width Length Bearing (true) Bearing (mag) Surface Threshold Offset Overrun Length
01 98 ft / 30 m 4,979 ft / 1,518 m 304.20° 326.29° Asphalt 300 ft / 91 m 0 ft / 0 m
18 148 ft / 45 m 9,915 ft / 3,022 m 161.91° 184.00° Asphalt 1,225 ft / 373 m 0 ft / 0 m
19 98 ft / 30 m 4,979 ft / 1,518 m 124.20° 146.29° Asphalt 300 ft / 91 m 0 ft / 0 m
36 148 ft / 45 m 9,915 ft / 3,022 m 341.91° 4.00° Asphalt 0 ft / 0 m 350 ft / 107 m

Approach Navaids

Runway Type Ident Frequency Range Bearing (true) Bearing (mag) Slope Elevation
18 Localiser IRF 110.30 MHz 18 nm / 33 km 161.91° 184.00° - 33 ft / 10 m (AMSL)
18 Glidescope IRF 110.30 MHz 10 nm / 19 km 161.91° 184.00° 3.00° 33 ft / 10 m (AMSL)

Popular Alternatives